RH
66 78 79 82 83 98 100 100 99 97 93 100 94 86 78 57 45 41 39 37 36 36 38 40 42 48 66 75 77 94 87 77 81 74 62 53 60 59 62 76 65 71 78
67 72 75 84 94 99 99 100 100 98 95 92 81 62 52 49 43 39 36 35 36 40 42 45 50 58 81 86 88 87 79 78 80 72 62 54 50 66 65 59 61 68 73
64 69 69 79 90 94 99 100 100 99 93 79 64 42 36 37 41 36 36 36 36 38 40 42 41 37 37 50 54 53 66 70 71 76 77 60 58 65 53 58 67 65 61
63 64 64 76 84 83 97 100 99 85 61 54 41 34 37 42 42 37 40 41 42 43 40 33 30 31 36 34 27 24 26 59 52 69 69 79 86 76 55 43 46 61 66
61 63 60 72 74 79 84 80 61 44 37 31 23 18 26 29 34 36 40 42 42 37 31 30 29 29 28 24 23 23 24 34 58 63 62 66 66 70 67 66 45 56 59
62 60 60 65 63 63 52 44 34 28 23 19 17 15 18 28 37 44 47 36 31 33 35 31 30 27 28 28 27 27 27 27 30 38 65 67 58 50 60 63 63 67 67
63 61 56 57 56 54 51 36 28 29 24 20 17 17 18 24 37 40 34 31 30 37 32 31 38 40 39 40 41 38 37 41 53 67 68 70 68 68 72 75 69 73 69
59 59 53 54 53 50 48 41 40 33 25 20 21 22 24 29 29 28 29 31 33 30 32 35 39 39 39 40 42 44 43 45 47 55 66 77 72 75 77 76 73 74 61
57 56 52 53 50 46 46 42 40 35 24 23 25 25 25 24 24 26 26 26 25 28 31 33 34 35 37 41 45 46 47 51 45 44 50 76 74 81 85 83 80 75 86
56 53 52 52 46 43 45 37 31 28 25 25 24 23 22 24 23 24 26 31 39 44 46 46 46 47 47 48 49 49 48 51 54 65 79 82 82 83 86 86 84 81 83
55 54 51 50 45 43 46 41 40 31 30 23 21 22 24 27 30 33 39 44 46 45 45 46 49 52 56 60 64 76 73 84 84 85 88 89 89 88 89 91 94 88 84
54 53 50 49 45 44 42 40 36 32 22 22 26 28 32 36 38 43 47 48 47 46 51 68 74 73 77 80 84 90 93 92 91 92 92 89 90 92 93 93 88 84 82
56 54 48 46 42 42 38 34 34 34 35 33 33 39 42 44 48 50 50 49 52 67 78 80 82 85 92 90 94 95 95 94 94 93 91 88 88 87 89 90 91 95 95
55 51 46 43 42 39 35 34 41 42 45 48 48 47 52 53 54 51 51 64 79 81 84 86 89 96 93 92 92 93 94 90 86 91 93 91 92 92 94 96 97 96 94
52 48 44 41 38 36 37 40 47 51 51 52 59 61 56 53 52 57 75 85 85 85 89 89 91 93 91 88 93 97 97 95 90 90 89 89 88 78 82 98 99 100 98
48 44 40 37 36 38 41 48 54 56 50 61 65 53 53 60 68 84 85 89 91 94 95 95 94 92 87 82 84 87 96 100 100 99 99 100 99 96 94 84 82 85 94
44 42 38 35 36 41 48 54 57 62 61 62 67 68 69 79 83 83 86 87 88 91 97 96 96 95 94 82 82 90 95 97 98 98 98 97 95 96 100 99 99 100 99
39 38 35 36 42 46 52 61 64 66 66 70 74 79 83 87 87 89 89 89 88 94 96 99 100 100 98 88 84 88 96 97 96 95 95 97 96 96 96 97 100 100 100
34 34 34 40 50 53 59 65 66 67 69 76 83 91 94 92 95 95 99 99 100 99 98 99 99 99 97 89 88 89 94 95 94 95 91 92 94 92 95 100 100 100 98
30 33 42 46 50 62 63 65 66 69 72 84 90 92 95 96 99 100 98 99 98 98 94 91 88 93 97 90 80 83 86 92 94 96 94 94 94 90 95 100 100 100 99
33 42 46 52 62 64 62 66 70 73 83 89 89 90 91 95 99 99 99 98 97 94 94 90 90 91 94 96 84 87 93 95 98 95 95 94 94 90 93 98 100 100 100
47 47 50 58 64 64 63 68 71 86 87 90 92 91 92 91 91 93 92 93 93 96 96 94 94 96 98 99 99 98 92 92 99 97 96 100 99 97 95 99 100 100 100
47 50 56 64 69 67 64 67 86 88 92 89 88 90 89 85 84 94 95 95 98 100 98 96 92 94 90 87 92 95 93 94 98 97 94 99 94 94 99 100 100 99 100
52 56 60 66 73 74 71 73 89 83 81 73 74 67 60 62 66 67 72 90 95 92 91 89 89 94 93 92 95 98 99 97 94 95 93 88 91 96 100 99 100 100 100
60 60 64 68 71 74 84 88 78 61 71 66 58 55 57 61 55 44 43 51 58 77 89 87 90 96 98 91 91 96 99 100 96 97 99 100 100 95 94 98 100 100 100
63 64 66 69 75 81 83 77 55 44 55 67 69 64 51 42 37 38 39 31 31 36 35 38 53 68 76 81 91 99 100 93 93 100 98 96 98 98 97 98 99 100 99
Wind_Speed
10 9 9 10 11 12 17 25 25 23 25 23 29 21 18 19 18 16 14 12 11 10 9 9 9 9 8 7 8 6 8 10 14 11 18 16 10 12 13 9 15 15 16
13 12 12 11 12 15 21 24 29 29 30 23 24 29 23 18 18 16 14 12 10 9 10 10 11 11 8 8 7 8 8 9 13 12 18 7 15 4 19 18 12 14 14
18 13 14 14 15 18 25 28 32 32 32 30 29 28 25 20 15 13 12 11 10 10 10 11 10 10 9 7 7 8 7 8 8 10 6 6 6 19 11 17 12 15 20
18 16 16 17 19 20 26 32 33 33 30 31 27 28 18 14 12 12 11 10 9 9 8 9 8 8 7 7 7 9 8 5 7 6 5 9 13 6 10 10 21 19 17
23 20 18 20 19 25 31 33 34 31 29 26 24 23 19 16 14 11 9 8 7 6 5 5 5 4 3 5 6 7 8 8 6 5 7 8 11 14 13 14 16 25 22
22 20 21 22 22 27 35 36 34 30 27 25 22 20 19 17 14 12 10 8 4 2 3 3 2 4 6 8 8 9 10 11 11 10 9 10 9 13 13 11 19 21 26
21 21 22 25 28 28 29 35 34 28 27 25 23 21 17 15 14 12 8 5 4 2 1 4 6 8 10 12 13 13 14 15 14 14 14 13 14 16 16 16 17 15 28
20 23 24 28 29 29 29 28 27 29 27 25 23 19 16 14 12 9 6 4 1 2 5 8 9 11 13 14 15 17 19 20 21 20 19 18 19 18 18 17 18 13 17
21 24 24 28 30 30 28 30 28 26 25 23 21 18 16 14 12 9 7 4 2 4 6 8 9 10 12 12 13 15 17 17 20 22 22 19 20 20 19 19 20 20 12
19 21 20 27 27 27 26 29 28 27 25 23 21 18 15 13 11 8 5 2 1 1 3 5 7 9 11 13 14 15 17 19 19 19 18 18 19 19 19 20 20 21 23
21 21 18 27 28 25 25 27 26 26 25 23 20 18 15 12 9 7 5 3 1 3 6 8 9 11 13 15 15 15 16 16 17 16 17 18 18 18 18 18 18 20 22
18 19 20 26 27 26 25 25 27 26 25 23 21 18 15 12 9 7 4 1 4 7 7 8 10 10 11 12 12 12 12 13 14 15 15 17 17 17 17 17 19 19 20
18 18 18 19 25 26 25 25 24 23 23 22 20 17 14 10 8 4 1 4 5 5 5 7 8 10 10 11 11 11 12 13 15 17 18 19 19 21 20 20 19 17 17
20 19 19 18 26 26 26 25 23 24 22 20 17 15 12 8 4 1 4 3 4 5 6 7 8 7 9 10 11 13 14 16 17 18 18 19 19 20 22 22 21 21 19
20 21 21 19 27 27 25 24 23 21 21 19 16 12 9 4 1 1 2 3 5 6 6 7 6 7 9 10 14 15 16 17 18 18 19 19 21 26 24 20 20 21 22
22 22 21 20 23 27 28 25 23 21 21 18 14 10 5 3 2 2 4 5 6 6 4 4 7 9 9 12 15 20 19 18 19 20 21 21 24 24 26 27 26 27 26
23 24 24 22 27 29 29 27 25 23 20 16 12 8 6 4 2 3 3 4 5 6 6 6 8 10 11 14 17 20 19 18 19 20 23 24 24 27 25 26 27 26 27
21 20 19 25 30 31 28 29 24 21 17 13 11 8 7 5 3 3 2 3 4 5 7 9 10 11 12 14 17 20 18 19 18 20 23 24 27 25 28 30 29 30 30
22 21 29 33 33 32 31 30 23 19 16 13 11 9 7 6 4 3 3 4 5 7 8 9 12 13 13 14 17 21 19 19 20 20 22 25 28 30 28 31 28 29 30
24 27 33 35 33 29 32 28 22 18 15 14 12 10 9 6 3 2 2 4 6 7 9 11 12 13 12 14 17 20 20 21 22 23 23 23 26 29 30 29 29 26 26
27 33 34 32 30 30 27 22 20 17 16 14 13 10 7 5 4 1 3 4 5 7 7 8 9 11 11 14 17 20 20 21 25 26 25 25 28 30 29 30 29 25 24
28 34 31 30 30 29 25 21 20 19 16 14 12 9 7 6 4 3 1 2 4 6 7 8 8 10 13 16 20 22 23 26 26 28 28 29 31 30 27 27 20 18 17
27 31 33 29 25 24 23 22 21 21 17 14 12 10 8 7 4 2 2 3 3 3 5 7 10 12 16 19 20 23 26 27 29 27 31 32 28 24 21 18 17 14 10
24 31 32 27 23 21 20 18 21 20 17 17 15 12 10 8 6 4 3 1 2 3 4 7 11 15 16 17 21 25 26 26 25 27 30 27 23 19 17 14 10 9 9
26 30 27 25 24 23 22 22 22 21 18 16 15 13 10 9 7 3 2 3 3 3 6 9 11 15 16 18 25 25 28 26 26 31 24 20 17 15 14 10 9 9 8
25 23 23 24 25 25 23 22 22 21 19 16 15 14 12 9 5 2 1 3 5 7 9 11 11 14 14 19 22 23 27 25 23 20 16 16 14 14 14 11 10 8 7
Wind_Direction
196 179 172 173 175 176 171 184 171 165 158 152 149 138 126 125 114 107 103 92 79 70 63 61 53 46 42 31 16 9 1 349 348 331 324 315 308 323 304 325 314 309 312
192 181 172 168 166 172 173 173 170 168 165 159 155 148 134 124 114 105 99 93 83 74 67 62 60 56 54 48 39 21 358 342 351 340 326 328 312 298 323 316 322 313 322
193 188 180 175 167 170 173 173 173 172 169 162 152 139 130 121 116 114 104 93 82 75 65 58 55 43 35 24 14 17 15 354 345 347 320 316 313 320 300 301 291 311 304
192 189 184 177 172 167 172 174 168 165 163 163 152 145 142 136 128 115 101 96 84 76 58 42 31 30 41 41 25 10 3 352 338 340 314 290 297 308 310 303 304 300 298
190 188 184 175 165 164 163 160 156 153 152 153 148 139 128 125 124 116 111 104 94 73 50 41 34 32 10 337 331 330 333 330 312 288 306 294 288 291 293 307 310 303 300
189 183 173 167 160 158 157 155 149 143 142 141 136 133 131 134 136 138 134 126 114 99 80 20 347 330 307 303 308 305 312 309 305 288 276 270 284 291 290 295 305 305 305
183 176 173 173 165 162 157 154 148 143 143 140 138 135 133 137 139 138 130 125 110 131 330 307 290 293 306 310 304 300 297 296 292 293 292 286 281 285 283 283 293 299 304
186 183 177 174 168 164 159 155 151 146 147 145 140 137 134 134 132 132 134 137 167 289 287 292 295 300 301 300 299 295 293 295 295 292 290 287 283 280 277 276 290 297 298
189 184 175 173 169 166 163 158 154 151 150 146 141 140 140 142 143 142 146 152 241 281 294 302 305 306 305 307 308 308 308 305 302 300 297 290 286 282 277 277 275 280 290
183 181 176 172 170 166 163 162 158 153 150 150 147 145 146 145 141 141 138 163 193 352 348 338 328 324 322 324 322 317 318 318 314 308 305 300 293 286 276 274 273 276 279
184 178 173 168 165 164 164 162 156 154 153 151 152 149 144 142 139 131 127 139 51 327 316 310 314 319 319 317 314 317 315 314 315 317 310 306 309 302 296 287 284 283 280
179 174 170 162 166 165 163 160 158 155 156 156 152 147 143 140 133 138 161 233 301 308 307 308 318 326 326 324 320 321 323 328 327 326 330 326 324 315 308 300 290 287 282
171 170 165 165 166 165 162 159 157 155 155 153 148 141 137 139 145 160 252 309 311 317 324 334 340 344 337 328 331 327 322 319 321 322 318 315 313 309 306 304 300 294 290
170 170 171 169 168 166 162 159 155 155 151 146 140 138 140 148 154 319 316 327 342 348 354 351 349 338 333 339 333 330 323 321 316 310 309 309 306 307 310 305 298 293 286
178 180 176 172 168 163 160 154 149 147 146 141 138 138 146 153 130 335 3 5 1 357 351 344 342 341 345 348 350 344 329 319 311 309 309 304 303 311 310 307 302 301 293
186 184 178 168 165 160 157 151 146 144 148 141 140 148 149 127 83 72 39 23 9 3 353 359 354 342 335 344 339 334 323 315 317 315 310 310 312 309 305 304 299 295 285
187 183 179 170 163 157 151 148 146 147 147 144 136 145 130 123 130 68 50 35 23 7 349 339 334 323 325 338 336 332 324 320 320 316 314 315 310 309 305 306 305 300 292
186 178 169 161 154 151 149 142 143 143 139 137 145 144 149 149 125 113 70 31 358 343 338 329 319 315 322 334 337 331 326 320 316 314 314 310 309 309 311 312 307 305 298
179 172 164 154 147 148 145 140 141 141 143 151 152 154 157 160 151 106 46 13 360 351 330 317 320 320 321 337 340 338 331 323 317 314 314 312 307 312 314 316 308 304 298
164 159 154 147 143 143 143 139 142 147 152 160 157 167 169 165 141 94 25 4 354 329 318 316 318 324 319 335 346 342 334 323 322 317 310 308 308 311 314 313 307 298 295
152 152 149 140 138 141 143 140 146 157 155 151 164 162 159 161 167 139 25 351 310 297 298 310 326 327 330 334 342 341 336 326 322 316 315 312 315 317 315 312 308 298 306
145 147 137 135 139 145 146 149 160 151 151 163 157 147 152 159 144 94 45 297 288 292 311 332 335 337 336 336 334 338 333 328 321 316 314 311 314 316 315 313 315 312 305
144 142 135 133 141 150 155 161 154 151 160 155 140 141 144 128 123 140 224 268 301 327 342 334 335 333 337 338 337 334 332 327 322 319 320 320 321 321 316 316 318 319 316
142 138 135 139 145 155 162 161 149 152 151 145 144 141 131 137 158 191 226 257 22 1 328 335 339 334 333 334 338 334 330 326 324 324 324 327 325 324 316 316 319 322 325
141 139 141 146 153 157 154 151 150 151 145 146 150 152 161 173 179 170 134 76 39 358 334 348 341 333 325 331 330 330 328 322 322 321 319 319 323 326 323 318 314 324 332
141 141 145 147 153 157 147 148 155 155 151 155 166 172 176 179 177 166 49 44 25 13 14 9 347 334 332 334 330 323 327 331 332 327 324 326 327 326 324 321 317 324 334